DW5542 Weather Reports


time (UTC)temp
C
wind
direction
speed
KPH
gust
KPH
rain 1hr
cm
rain 24hr
cm
rain mn
cm
humidity
%
barometer
mb
20260507123014 18 100 0.0 6.4 0.03 0.03 0.03 80 1010.1
20260507121512 17 127 0.0 0.0 0.03 0.03 0.03 81 1010.4
20260507120027 16 136 0.0 3.2 0.03 0.03 0.03 82 1010.8
20260507114509 16 102 0.0 0.0 0.03 0.03 0.03 82 1010.8
20260507113032 16 84 0.0 1.6 0.00 0.00 0.00 82 1011.1
20260507111509 16 119 0.0 14.5 0.00 0.00 0.00 78 1011.1
20260507110010 18 95 1.6 24.1 0.00 0.00 0.00 76 1011.3
20260507104505 18 108 0.0 12.9 0.00 0.00 0.00 73 1011.2
20260507103008 18 107 0.0 11.3 0.00 0.00 0.00 73 1011.1
20260507101507 18 104 1.6 19.3 0.00 0.00 0.00 71 1011.1
20260507100002 19 108 0.0 14.5 0.00 0.00 0.00 68 1011.1
20260507094502 19 91 0.0 8.0 0.00 0.00 0.00 67 1011.1
20260507093059 19 105 0.0 12.9 0.00 0.00 0.00 68 1011.1
20260507091557 19 139 0.0 12.9 0.00 0.00 0.00 68 1011.1
20260507090055 18 97 0.0 11.3 0.00 0.00 0.00 70 1011.0
20260507084555 18 110 0.0 12.9 0.00 0.00 0.00 73 1011.1
20260507083050 18 110 0.0 4.8 0.00 0.00 0.00 74 1011.1
20260507081550 17 100 0.0 9.7 0.00 0.00 0.00 75 1011.1
20260507080048 17 99 0.0 12.9 0.00 0.00 0.00 75 1011.1
20260507074549 17 97 0.0 3.2 0.00 0.00 0.00 73 1011.1
20260507073059 17 96 0.0 3.2 0.00 0.00 0.00 72 1011.0
20260507071542 17 97 0.0 11.3 0.00 0.00 0.00 73 1010.9
20260507070043 17 99 0.0 3.2 0.00 0.00 0.00 72 1010.7
20260507064544 16 94 0.0 0.0 0.00 0.00 0.00 71 1010.6
20260507063040 14 344 0.0 0.0 0.00 0.00 0.00 72 1010.6
20260507061537 13 344 0.0 0.0 0.00 0.00 0.00 72 1010.6
20260507060032 12 344 0.0 0.0 0.00 0.00 0.00 73 1010.5
20260507054531 12 344 0.0 0.0 0.00 0.00 0.00 73 1010.5
20260507053035 11 344 0.0 0.0 0.00 0.00 0.00 75 1010.5
20260507051529 -17 0.0 0.0 0.00 0.00 0.00 1010.3
20260507050024 -17 0.0 0.0 0.00 0.00 0.00 1009.9
20260507044519 -17 0.0 0.0 0.00 0.00 0.00 1009.8
20260507043017 11 344 0.0 0.0 0.00 0.00 0.00 73 1009.6
20260507041514 11 344 0.0 0.0 0.00 0.00 0.00 73 1009.7
20260507040013 11 344 0.0 0.0 0.00 0.00 0.00 73 1009.7
20260507034511 11 345 0.0 0.0 0.00 0.00 0.00 73 1009.8
20260507033010 11 347 0.0 0.0 0.00 0.00 0.00 74 1009.9
20260507031507 11 332 0.0 0.0 0.00 0.00 0.00 74 1010.0
20260507030007 12 326 0.0 0.0 0.00 0.00 0.00 74 1010.1
20260507024503 12 332 0.0 0.0 0.00 0.00 0.00 71 1010.1
20260507023002 12 334 0.0 0.0 0.00 0.00 0.00 72 1010.1
20260507021501 12 338 0.0 0.0 0.00 0.00 0.00 73 1010.0
20260507014556 12 322 0.0 0.0 0.00 0.00 0.00 74 1010.2
20260507013111 13 347 0.0 0.0 0.00 0.00 0.00 71 1010.1
20260507011553 13 20 0.0 0.0 0.00 0.00 0.00 72 1010.1
20260507010053 13 19 0.0 0.0 0.00 0.00 0.00 73 1010.2
20260507004548 13 39 0.0 0.0 0.00 0.00 0.00 73 1010.3
20260507003045 13 15 0.0 0.0 0.00 0.00 0.00 74 1010.5
20260507001605 13 37 0.0 0.0 0.00 0.00 0.00 75 1010.6
20260507000042 13 1 0.0 0.0 0.00 0.00 0.00 75 1010.7
20260506234549 13 16 0.0 0.0 0.00 0.00 0.00 76 1010.8
20260506233039 13 9 0.0 0.0 0.00 0.00 0.00 75 1010.8
20260506231537 14 23 0.0 0.0 0.00 0.00 0.00 77 1010.9
20260506230035 14 13 0.0 0.0 0.00 0.00 0.00 76 1010.9
20260506224532 15 31 0.0 0.0 0.00 0.00 0.00 77 1010.9
20260506223032 15 31 0.0 0.0 0.00 0.00 0.00 77 1011.1
20260506221528 15 18 0.0 0.0 0.00 0.00 0.00 77 1011.0
20260506220034 15 19 0.0 0.0 0.00 0.00 0.00 77 1011.0
20260506214527 15 100 0.0 0.0 0.00 0.00 0.00 75 1011.0
20260506213024 15 114 0.0 0.0 0.00 0.00 0.00 74 1010.9
20260506211523 16 114 0.0 0.0 0.00 0.00 0.00 73 1010.9
20260506210022 16 114 0.0 0.0 0.00 0.00 0.00 72 1010.7
20260506204519 16 114 0.0 0.0 0.00 0.00 0.00 71 1010.6
20260506203018 17 114 0.0 0.0 0.00 0.00 0.00 71 1010.4
20260506201517 17 114 0.0 0.0 0.00 0.00 0.00 71 1010.4
20260506200017 17 114 0.0 0.0 0.00 0.00 0.00 70 1010.3
20260506194526 17 114 0.0 0.0 0.00 0.00 0.00 69 1010.0
20260506193015 17 116 0.0 0.0 0.00 0.00 0.00 69 1009.8
20260506191515 17 144 0.0 0.0 0.00 0.00 0.00 67 1009.9
20260506190014 17 149 0.0 0.0 0.00 0.00 0.00 66 1009.8
20260506184513 18 170 0.0 0.0 0.00 0.00 0.00 66 1009.6
20260506183012 18 162 0.0 4.8 0.00 0.00 0.00 66 1009.4
20260506181512 18 109 0.0 1.6 0.00 0.00 0.00 66 1009.2
20260506180012 18 129 0.0 0.0 0.00 0.00 0.00 65 1009.0
20260506174511 18 162 0.0 4.8 0.00 0.00 0.00 64 1009.1
20260506173011 18 135 0.0 1.6 0.00 0.00 0.00 63 1009.0
20260506171508 18 132 0.0 1.6 0.00 0.00 0.00 64 1009.2
20260506170007 19 156 0.0 6.4 0.00 0.00 0.00 63 1009.3
20260506164512 19 110 0.0 6.4 0.00 0.00 0.00 62 1009.4
20260506163006 19 167 0.0 8.0 0.00 0.00 0.00 61 1009.5
20260506161505 19 152 0.0 11.3 0.00 0.00 0.00 61 1009.3
20260506160004 19 124 0.0 8.0 0.00 0.00 0.00 62 1009.3
20260506154510 18 122 0.0 8.0 0.00 0.00 0.00 63 1009.3
20260506153001 18 141 0.0 12.9 0.00 0.00 0.00 65 1009.2
20260506151601 18 141 0.0 11.3 0.00 0.00 0.00 62 1009.3
20260506150105 18 121 0.0 9.7 0.00 0.00 0.00 63 1009.5
20260506144600 18 139 0.0 6.4 0.00 0.00 0.00 62 1009.6
20260506143058 18 131 0.0 4.8 0.00 0.00 0.00 65 1009.5
20260506141557 18 114 0.0 3.2 0.00 0.00 0.00 64 1009.8
20260506140057 18 139 1.6 19.3 0.00 0.00 0.00 64 1009.8
20260506134555 18 129 0.0 6.4 0.00 0.00 0.00 64 1009.9
20260506133104 19 162 0.0 9.7 0.00 0.00 0.00 63 1009.8
20260506131602 20 165 0.0 12.9 0.00 0.00 0.00 63 1009.9
20260506130056 20 191 0.0 19.3 0.00 0.00 0.00 63 1010.0
20260506124558 20 152 0.0 12.9 0.00 0.00 0.00 59 1010.0